STARLINK-11318, 61252

Orbit data source: Space-Track

STARLINK-11318, 61252 is a payload satellite owned by SpaceX/Seattle (US) in LEO that was launched on Wed, 25 Sep 2024 UTC via an FALCON 9 launch vehicle from the Air Force Western Test Range (AFWTR). Payload-class satellites include a variety of spacecraft equipped with specific instruments for various scientific and technological missions. These include communications satellites like Starlink; space stations such as the ISS; scientific satellites like the Hubble; Earth observation satellites from companies like Planet Labs, Umbra, and HawkEye 360; GPS; miniature CubeSats for education and research; and military/defense satellites.

Loading next visibility...
Identifier
61252, 2024-175K
Orbit
LEO
Country
Flag of USUS
Related business
Manufacturer
SpaceX/Seattle
Mission
Operational spacecraft
Bus & Motor
STARLINK V2MD, Unknown motor
Mass
960 kg wet, ~910 kg dry
Launch date (UTC)
2024-09-25 (1 year ago)
Launch vehicle
FALCON 9
Launch site
Air Force Western Test Range (AFWTR)
Object type
Payload
Rocket body
Debris
Shape & HBR
Unknown shape, 18.1 m
Radar Cross Section
Large (>1 m²)

Expand to show TLE details & history
Last TLE update: 1 day ago

TLE from 1 day ago
0 STARLINK-11318
1 61252U 24175K   25296.61326519 -.00000036  00000-0  45593-5 0  9993
2 61252  53.1581  12.2533 0001210  69.5745 290.5402 15.69710181 63007
Epoch: 2025-10-23T14:43Z
TLE epoch observation values (Epoch: 2025-10-23T14:43:06.112Z)
Latitude
-0.00008°
Longitude
119.20777°
Altitude
360.355 km
Speed
7.694 km/s
True Right ascension
00h 49m 00s
True Declination
0° 00' 00"
Sunlit
Object was in full shadow at epoch
Visualization orbit readout
Latitude
Unknown
Longitude
Unknown
Altitude
Unknown
Speed
Unknown
Apparent Right ascension
Unknown
Apparent Declination
Unknown
Sunlit
N/A
Visualization observer readout
Local Sidereal Time
17:14:26
Azimuth
Unknown
Elevation
Unknown
Doppler factor
Unknown
Orbital elements
Apogee altitude
360.803 km
Perigee altitude
359.172 km
Semi-major axis
6,738.124 km
Eccentricity
0.00012
Inclination
53.1581°
RAAN
12.2533°
Arg. of periapsis
69.5745°
True anomaly
290.52722°
Mean anomaly
290.5402°
Eccentric anomaly
290.53371°
Mean motion
3.92405 °/min
Orbital period
91.74 mins
BSTAR
0.0000045593
Loading maneuver chart data...
Computing Atmospheric mass density...
Loading historical data...
Loading historical data...
Loading historical data...
Loading historical data...
Loading historical data...
Loading historical data...
Loading historical data...

Documentation

Showing up to 5 results
|